Terminal Aerodrome Forecast
Issued by NWS

Home | Current Version | Previous Version | Text Only | Print | Product List | Glossary On
Versions: 1 2 3 4 5 6 7 8 9 10 11 12 13
000
FTUS45 KLKN 201700 RRA
TAFEKO
TAF
KEKO 201742Z 2018/2118 21003KT P6SM SCT250
     FM202000 26009KT P6SM FEW070 SCT250
     FM210200 VRB03KT P6SM SCT250=

USA.gov is the U.S. government's official web portal to all federal, state and local government web resources and services.